Kuchera_Ratio
0.0 0.0 0.0 0.0 0.0 0.0 0.0 0.0 0.0 0.0 0.0 0.0 0.0 0.0 0.0 0.0 0.0 0.0 0.0 0.0 0.0 0.0 0.0 0.0 0.0 0.0 0.0 0.0 0.0 0.0 0.0 0.0 0.0 0.0 0.0 0.0 0.0 0.0 0.0 0.0 0.0 0.0 0.0
0.0 0.0 0.0 0.0 0.0 0.0 0.0 0.0 0.0 0.0 0.0 0.0 0.0 0.0 0.0 0.0 0.0 0.0 0.0 0.0 0.0 0.0 0.0 0.0 0.0 0.0 0.0 0.0 0.0 0.0 0.0 0.0 0.0 0.0 0.0 0.0 0.0 0.0 0.0 0.0 0.0 0.0 0.0
0.0 0.0 0.0 0.0 0.0 0.0 0.0 0.0 0.0 0.0 0.0 0.0 0.0 0.0 0.0 0.0 0.0 0.0 0.0 0.0 0.0 0.0 0.0 0.0 0.0 0.0 0.0 0.0 0.0 0.0 0.0 0.0 0.0 0.0 0.0 0.0 0.0 0.0 0.0 0.0 0.0 0.0 0.0
0.0 0.0 0.0 0.0 0.0 0.0 0.0 0.0 0.0 0.0 0.0 0.0 0.0 0.0 0.0 0.0 0.0 0.0 0.0 0.0 0.0 0.0 0.0 0.0 0.0 0.0 0.0 0.0 0.0 0.0 0.0 0.0 0.0 0.0 0.0 0.0 0.0 0.0 0.0 0.0 0.0 0.0 0.0
0.0 0.0 0.0 0.0 0.0 0.0 0.0 0.0 0.0 0.0 0.0 0.0 0.0 0.0 0.0 0.0 0.0 0.0 0.0 0.0 0.0 0.0 0.0 0.0 0.0 0.0 0.0 0.0 0.0 0.0 0.0 0.0 0.0 0.0 0.0 0.0 0.0 0.0 0.0 0.0 0.0 0.0 0.0
0.0 0.0 0.0 0.0 0.0 0.0 0.0 0.0 0.0 0.0 0.0 0.7 1.5 0.0 0.0 0.0 0.0 0.0 0.0 0.0 0.0 0.0 0.0 0.0 0.0 0.0 0.0 0.0 0.0 0.0 0.0 0.0 0.0 0.0 0.0 0.0 0.0 0.0 0.0 0.0 0.0 0.0 0.0
0.0 0.0 0.0 0.0 0.0 0.0 0.0 0.0 0.0 0.0 0.0 0.3 1.5 1.1 0.3 0.0 0.2 0.0 0.0 0.0 0.0 0.0 0.0 0.0 0.0 0.0 0.0 0.0 0.0 0.0 0.0 0.0 0.0 0.0 0.0 0.0 0.0 0.0 0.0 0.0 0.0 0.0 0.0
0.0 0.0 0.0 0.0 0.0 0.0 0.0 0.0 0.7 0.0 0.0 0.3 0.3 0.0 0.0 0.0 0.7 0.0 0.0 0.0 0.0 0.0 0.0 0.0 0.0 0.0 0.0 0.0 0.0 0.0 0.0 0.0 0.0 0.0 0.0 0.0 0.0 0.0 0.0 0.0 0.0 0.0 0.0
0.0 0.0 0.0 0.0 0.0 0.0 1.5 1.5 1.5 2.7 1.9 1.1 0.3 0.0 0.0 0.0 0.7 1.1 0.0 0.3 0.0 0.0 0.0 0.0 0.0 0.0 0.0 0.0 0.0 0.0 0.0 0.0 0.0 0.0 0.0 0.0 0.0 0.0 0.0 0.0 0.0 0.0 0.0
0.0 0.0 0.0 0.0 0.0 1.1 2.7 2.7 2.3 3.1 3.9 3.6 3.5 2.3 0.7 0.7 1.1 0.7 0.3 0.3 3.1 0.0 0.0 0.0 0.0 0.0 0.0 0.0 0.0 0.0 0.0 0.0 0.0 0.0 0.0 0.0 0.0 0.0 0.0 0.0 0.0 0.0 0.0
0.0 0.0 0.0 0.0 0.0 0.7 2.7 3.5 3.9 4.7 5.2 5.3 5.4 4.2 3.1 3.4 1.1 0.7 0.7 2.3 3.9 5.4 3.3 3.4 0.0 0.0 0.0 0.0 0.0 0.0 0.0 0.0 0.0 0.0 0.0 0.0 0.0 0.0 0.0 0.0 0.0 0.0 0.0
0.0 0.0 0.0 0.0 0.0 0.3 1.9 3.1 2.7 3.5 3.9 4.3 5.9 6.4 5.8 4.7 2.7 1.1 1.5 2.7 3.1 6.3 7.0 6.7 5.0 2.4 0.0 0.0 0.0 0.0 0.0 0.0 0.0 0.0 0.0 0.0 0.0 0.0 0.0 0.0 0.0 0.0 0.0
0.3 0.7 0.0 1.5 2.3 2.7 3.9 4.7 5.1 4.3 5.5 5.4 6.1 6.2 5.9 4.7 4.7 3.1 2.7 2.7 3.9 6.3 5.5 5.5 6.3 5.5 4.3 0.7 0.0 0.0 0.0 0.0 0.0 0.0 0.0 0.0 0.0 0.0 0.0 0.0 0.0 0.0 0.0
0.0 1.5 2.3 5.5 5.1 3.1 2.7 4.3 5.1 5.5 6.3 6.7 6.5 6.9 6.7 5.5 5.1 7.1 7.8 8.1 5.1 5.9 6.7 5.9 6.3 8.3 7.1 5.5 4.3 0.0 0.0 0.0 0.0 0.0 0.0 0.0 0.0 0.0 0.0 0.0 0.0 0.0 0.0
1.1 4.3 5.1 5.1 5.1 4.3 3.5 4.3 5.9 3.9 5.1 6.7 6.3 6.7 7.9 7.3 5.9 4.3 5.1 5.9 7.1 7.5 8.3 7.9 8.0 7.3 7.5 6.6 5.4 4.5 2.8 0.3 0.0 0.0 0.0 0.0 0.0 0.0 0.0 0.0 0.0 0.0 0.0
5.9 5.1 6.3 7.1 6.7 5.9 6.3 6.3 2.7 4.3 3.5 3.9 4.3 4.9 4.7 4.3 3.9 3.1 3.5 3.5 3.9 5.1 8.7 8.7 8.3 7.9 8.4 7.5 6.6 4.5 3.1 2.5 0.1 1.1 0.0 0.0 0.0 0.0 0.0 0.0 0.0 0.0 0.0
5.1 5.1 5.9 6.3 7.1 7.5 7.5 8.3 9.1 4.7 3.1 3.5 3.5 3.1 3.9 3.9 3.5 3.1 3.1 3.5 4.3 5.5 9.1 8.7 8.9 8.5 8.6 7.5 6.7 6.6 4.3 4.8 3.4 2.4 1.6 1.0 0.0 0.0 0.0 0.0 0.0 0.0 0.0
5.9 6.7 7.1 7.9 7.9 7.9 7.9 7.9 7.1 8.5 9.1 7.1 4.3 5.1 4.3 3.9 3.5 3.1 3.5 4.7 7.6 6.8 7.5 7.9 7.7 7.5 7.5 6.7 6.7 5.9 5.5 4.9 3.9 3.1 3.1 2.3 0.7 0.0 2.2 0.3 0.8 0.0 0.0
6.7 7.1 7.5 7.5 7.5 7.9 7.5 7.5 7.9 7.9 7.9 7.5 6.3 7.2 7.2 4.7 3.9 4.3 4.3 7.1 7.9 7.4 6.7 6.7 5.9 5.7 5.3 5.3 4.7 3.7 3.1 3.3 2.8 3.2 3.6 3.7 2.8 1.6 2.7 3.0 2.4 0.2 0.5
7.1 7.5 7.9 7.9 7.9 8.3 8.3 8.7 8.3 8.3 8.3 8.3 7.5 8.3 7.1 6.7 7.5 7.1 6.7 6.7 7.1 7.1 6.3 5.9 5.1 4.7 4.7 5.1 3.0 2.2 2.1 2.7 3.1 2.6 3.9 4.1 4.7 3.9 3.3 3.6 3.6 3.6 2.6
8.3 8.3 8.7 10.7 10.7 9.9 9.5 9.9 9.5 9.1 9.8 9.1 8.3 7.5 7.5 8.3 8.7 8.3 7.9 7.5 7.5 6.7 6.7 5.9 5.5 5.1 5.1 5.1 5.1 4.9 5.0 5.5 5.2 5.2 5.1 5.4 4.7 5.5 4.6 3.8 4.0 4.2 3.8
9.9 9.1 8.3 10.3 10.3 9.9 10.3 10.3 9.9 10.3 9.9 9.5 8.7 7.5 6.7 7.1 8.7 8.7 7.9 7.5 7.1 6.7 6.3 5.9 5.9 5.5 5.1 5.1 5.1 6.3 5.9 5.9 5.9 5.5 5.1 5.1 4.0 5.1 5.1 5.1 5.1 4.7 4.7
7.9 9.5 10.7 10.7 10.3 12.5 12.1 12.1 11.5 10.7 10.3 9.5 9.1 9.5 9.1 8.7 8.7 8.7 8.7 7.9 7.5 7.5 6.7 6.7 6.7 6.7 5.5 5.1 4.7 4.7 5.5 5.5 4.7 4.3 5.1 5.5 5.5 5.5 5.9 5.9 5.5 5.5 5.4
11.1 11.5 11.9 12.1 12.3 12.9 12.7 12.1 11.5 11.1 11.1 11.1 10.7 10.3 9.9 9.1 8.7 8.3 7.9 7.5 7.9 7.5 7.1 7.5 7.9 7.5 7.1 6.7 6.3 5.2 4.6 4.3 4.1 4.3 4.7 5.1 5.9 5.5 5.5 5.9 5.9 5.9 5.5
12.1 12.1 13.0 12.7 12.9 13.1 12.7 12.5 12.3 12.1 12.3 11.9 12.1 11.5 10.7 9.9 9.1 8.7 7.9 8.3 8.3 7.5 7.9 7.5 7.5 7.9 7.9 8.3 7.5 6.7 6.0 5.9 5.1 4.1 4.7 5.5 5.5 5.9 5.9 6.3 5.9 5.9 5.9
11.1 11.9 11.5 12.5 12.5 12.9 12.9 12.9 13.1 12.9 13.1 12.7 12.5 12.3 12.3 11.5 10.3 9.5 8.3 8.3 8.3 8.7 8.3 7.5 7.9 8.3 8.7 8.9 8.3 7.9 7.1 7.1 6.6 5.8 4.8 5.1 5.9 6.3 6.3 6.7 6.7 6.3 6.7